Regional Weather Roundup
Issued by NWS

Home | Current Version | Previous Version | Graphics & Text | Print | Product List | Glossary Off
Versions: 1 2 3 4 5 6 7 8 9 10 11 12 13 14 15 16 17 18 19 20 21 22 23 24 25 26 27 28 29 30 31 32 33 34 35 36 37 38 39 40 41 42 43 44 45 46 47 48 49 50

000
ASUS43 KIND 212109
RWRIN

WEATHER ROUNDUP FOR INDIANA
NATIONAL WEATHER SERVICE INDIANAPOLIS IN
500 PM EDT THU AUG 21 2014

NOTE: "FAIR" INDICATES FEW OR NO CLOUDS BELOW 12,000 FEET WITH NO
SIGNIFICANT WEATHER AND/OR OBSTRUCTIONS TO VISIBILITY.

* - STATION DOES NOT REPORT WEATHER SUCH AS PRECIPITATION OR FOG.

+ - STATION NOT QUALITY CONTROLLED BY THE NATIONAL WEATHER SERVICE.
    USE DATA WITH CAUTION...ESPECIALLY DEWPOINT AND RELATIVE
    HUMIDITY OBSERVATIONS.

INZ001>003-010>013-019-020-212200-
NORTHWEST INDIANA

CITY           SKY/WX    TMP DP  RH WIND       PRES   REMARKS
GARY /AIRPORT/ CLOUDY    82  73  74 VRB6      29.94F
KNOX *+        PTSUNNY   79  72  79 E6        29.96F
LA PORTE +     CLOUDY    77  76  96 E6        29.98F
MICHIGAN CITY+ CLOUDY    77  73  88 SE3       29.97F
MONTICELLO +   PTSUNNY   84  75  73 SW8       29.95F
RENSSELAER +   MOSUNNY   84  77  79 S6        29.95F
VALPARAISO     PTSUNNY   80  72  76 SE5       29.96F

$$

LMZ046-743>745-212200-
SOUTHERN LAKE MICHIGAN

STATION/POSITION TIME  TEMP WIND        PRES
                       AIR  DIR/SP/G
                 (UTC) (F)  (DEG/KT/KT) (MB)
BURNS HARBOR     2100   80  180/  2/  6   N/A
MICHIGAN CITY    2100   77  100/  5/  7   N/A

$$

INZ004-005-014>016-021>024-212200-
NORTH CENTRAL INDIANA

CITY           SKY/WX    TMP DP  RH WIND       PRES   REMARKS
ELKHART        CLOUDY    79  68  69 S6        29.98
GOSHEN         CLOUDY    78  71  79 S7        29.99F
LOGANSPORT +   PTSUNNY   82  70  65 SW9       29.97F
PERU/GRISSOM   PTSUNNY   83  80  89 S9        29.97F HX  95
ROCHESTER +    CLOUDY    81  73  78 E5        29.99R
SOUTH BEND     CLOUDY    79  71  76 S10       29.98F
WARSAW +       CLOUDY    77  70  78 CALM      30.00F

$$

INZ006>009-017-018-025>027-212200-
NORTHEAST INDIANA

CITY           SKY/WX    TMP DP  RH WIND       PRES   REMARKS
ANGOLA *+      PTSUNNY   79  70  73 SW7       30.00F
AUBURN +       CLOUDY    73  72  94 CALM      30.02F
FORT WAYNE     CLOUDY    77  71  82 W5        30.02R
HUNTINGTON +   CLOUDY    77  72  84 S3        30.00S

$$

INZ028-029-035-036-043>045-051>053-212200-
WEST CENTRAL INDIANA

CITY           SKY/WX    TMP DP  RH WIND       PRES   REMARKS
GREENCASTLE +  MOSUNNY   84  75  74 SW3       29.99F
LAFAYETTE      PTSUNNY   85  74  69 SW9       29.95F
TERRE HAUTE    PTSUNNY   88  75  65 SW10      29.98F HX  97

$$

INZ030>032-037>040-046>048-054>057-064-065-212200-
CENTRAL INDIANA

CITY           SKY/WX    TMP DP  RH WIND       PRES   REMARKS
CP ATTERBURY + MOSUNNY   86  72  62 SW9       30.00F
FRANKFORT +    PTSUNNY   86  76  71 S8        29.98F HX  96
INDIANAPOLIS   PTSUNNY   85  73  67 SW10      29.99F
-EAGLE CREEK   MOSUNNY   85  72  65 SW8G18    29.98F
KOKOMO *+      PTSUNNY   82  75  78 S7        29.98S
MARION +       PTSUNNY   80  71  75 S7        30.00F
MT COMFORT *+  PTSUNNY   84  72  65 S8        30.00S
SHELBYVILLE    MOSUNNY   86  73  65 SW10      29.99F
ZIONSVILLE +   MOSUNNY   84  72  67 SW9       29.99F

$$

INZ033-034-041-042-049-050-058-059-212200-
EAST CENTRAL INDIANA

CITY           SKY/WX    TMP DP  RH WIND       PRES   REMARKS
MUNCIE         PTSUNNY   80  71  74 S9        30.00F

$$

INZ060-061-067>069-081>083-085>088-212200-
SOUTHWEST INDIANA

CITY           SKY/WX    TMP DP  RH WIND       PRES   REMARKS
EVANSVILLE     SUNNY     91  72  53 SW10      30.00F HX  98
WASHINGTON +   SUNNY     87  75  67 SW8       29.98F HX  97

$$

INZ062-063-066-070>080-084-089>092-212200-
SOUTH CENTRAL AND SOUTHEAST INDIANA

CITY           SKY/WX    TMP DP  RH WIND       PRES   REMARKS
BLOOMINGTON    MOSUNNY   87  75  67 S7        30.00F HX  96
SEYMOUR +      MOSUNNY   84  55  37 SW9       30.00

$$



USA.gov is the U.S. government's official web portal to all federal, state and local government web resources and services.